Hourly Data Report for February 11, 2019

TORONTO INTL A
ONTARIO
Current Station Operator: NAVCAN

43°40'36.000" N
79°37'50.000" W
173.40 m
6158731
71624
YYZ

Download Data

Hourly Data (February 2019)
Hourly Data Report for February 11, 2019
TIME
LST
Temp Definition
°C
Dew Point Definition
°C
Rel Hum Definition
%
Precip. Amount Definition
mm

Wind Dir Definition
10's deg

Wind Spd Definition
km/h
Visibility Definition
km
Stn Press Definition
kPa
Hmdx Definition


Wind Chill Definition


Weather Definition


00:00 -5.2 -8.3 79   5 13 8.1 100.57   -10 Snow
01:00 -5.1 -8.0 80   4 12 9.7 100.52   -10 Snow
02:00 -5.0 -7.8 81   3 12 9.7 100.53   -10 Snow
03:00 -5.3 -7.9 82   3 13 6.4 100.50   -10 Snow
04:00 -5.5 -8.0 83   4 14 6.4 100.47   -11 Snow
05:00 -5.5 -8.0 83   3 18 16.1 100.49   -12 Snow
06:00 -5.7 -8.2 83   4 21 24.1 100.52   -13 Snow
07:00 -5.5 -8.1 82   6 15 16.1 100.54   -11 Snow
08:00 -5.4 -8.2 81   4 21 9.7 100.60   -12 Snow
09:00 -5.4 -8.3 81   6 18 12.9 100.63   -12 Snow
10:00 -5.0 -7.9 80   7 18 16.1 100.66   -11 Snow
11:00 -4.8 -7.9 79   6 20 24.1 100.68   -11 LegendNANA
12:00 -4.8 -8.1 77   6 17 16.1 100.70   -11 Snow
13:00 -4.4 -8.2 75   7 24 24.1 100.67   -11 Mostly Cloudy
14:00 -4.0 -8.5 71   7 24 24.1 100.65   -11 LegendNANA
15:00 -4.0 -9.1 68   9 28 24.1 100.63   -11 LegendNANA
16:00 -3.9 -9.6 65   9 21 24.1 100.65   -10 Mostly Cloudy
17:00 -4.1 -10.3 62   8 20 24.1 100.67   -10 LegendNANA
18:00 -4.3 -10.7 61   8 18 24.1 100.73   -10 LegendNANA
19:00 -4.5 -10.9 61   6 17 24.1 100.80   -10 Clear
20:00 -5.0 -12.1 58   7 15 24.1 100.79   -11 LegendNANA
21:00 -5.1 -12.6 56   6 16 24.1 100.77   -11 LegendNANA
22:00 -5.4 -13.8 52   6 18 24.1 100.78   -12 Clear
23:00 -5.8 -14.2 52   7 16 24.1 100.74   -12 LegendNANA

Notes on Data Quality.

Legend

  • E = Estimated
  • M = Missing
  • NA = Not Available*
  • [empty] = Indicates an unobserved value
Date modified: